DW5091 Weather Reports


Display with metric or nautical units.
time (UTC)temp
F
wind
direction
speed
MPH
gust
MPH
rain 1hr
in
rain 24hr
in
rain mn
in
humidity
%
barometer
mb
20260505095602 55 354 3.0 8.0 0.00 0.00 0.00 74 1014.7
20260505094103 54 2 6.0 14.0 0.00 0.00 0.00 74 1014.8
20260505092603 54 355 8.0 14.0 0.00 0.00 0.00 73 1014.8
20260505091103 53 355 5.0 10.0 0.00 0.00 0.00 75 1014.8
20260505085603 54 352 6.0 12.0 0.00 0.00 0.00 73 1014.7
20260505083603 53 3 4.0 12.0 0.00 0.00 0.00 76 1015.0
20260505082104 53 331 3.0 12.0 0.00 0.00 0.00 77 1014.9
20260505081103 52 353 4.0 12.0 0.00 0.00 0.00 80 1015.0
20260505080603 51 1 7.0 15.0 0.00 0.00 0.00 79 1015.1
20260505075603 51 2 5.0 9.0 0.00 0.00 0.00 82 1015.1
20260505074603 51 356 5.0 8.0 0.00 0.00 0.00 83 1015.1
20260505073603 50 358 6.0 10.0 0.00 0.00 0.00 85 1015.2
20260505073103 50 351 6.0 9.0 0.00 0.00 0.00 86 1015.2
20260505071603 49 3 5.0 10.0 0.00 0.00 0.00 88 1015.2
20260505071104 49 346 5.0 12.0 0.00 0.00 0.00 88 1015.2
20260505070104 48 3 8.0 16.0 0.00 0.00 0.00 90 1015.1
20260505065604 48 356 6.0 12.0 0.00 0.00 0.00 91 1015.2
20260505065104 48 357 6.0 10.0 0.00 0.00 0.00 91 1015.2
20260505064603 48 356 3.0 9.0 0.00 0.00 0.00 92 1015.1
20260505061603 47 346 3.0 5.0 0.00 0.00 0.00 95 1015.0
20260505060103 47 356 2.0 3.0 0.00 0.00 0.00 94 1015.0
20260505054605 48 346 3.0 6.0 0.00 0.00 0.00 93 1014.8
20260505054104 48 350 2.0 7.0 0.00 0.00 0.00 93 1014.7
20260505053104 48 9 1.0 3.0 0.00 0.00 0.00 94 1014.7
20260505052103 47 346 2.0 5.0 0.00 0.00 0.00 95 1014.6
20260505051605 47 14 0.0 2.0 0.00 0.00 0.00 95 1014.7
20260505051103 47 23 0.0 1.0 0.00 0.00 0.00 95 1014.6
20260505050603 47 25 0.0 1.0 0.00 0.00 0.00 95 1014.7
20260505050103 47 25 0.0 2.0 0.00 0.00 0.00 95 1014.7
20260505041103 47 43 0.0 1.0 0.00 0.00 0.00 95 1015.1
20260505035603 48 36 1.0 3.0 0.00 0.00 0.00 95 1015.1
20260505034103 48 334 1.0 3.0 0.00 0.00 0.00 94 1015.0
20260505033603 48 15 1.0 3.0 0.00 0.00 0.00 94 1015.0
20260505032604 48 9 2.0 5.0 0.00 0.00 0.00 94 1014.9
20260505031603 49 0 2.0 5.0 0.00 0.00 0.00 94 1014.9
20260505025104 50 347 2.0 3.0 0.00 0.00 0.00 93 1014.8
20260505024603 50 358 3.0 7.0 0.00 0.00 0.00 93 1014.8
20260505024103 50 335 3.0 7.0 0.00 0.00 0.00 92 1014.8
20260505023603 50 340 2.0 3.0 0.00 0.00 0.00 92 1014.7
20260505023103 51 355 3.0 3.0 0.00 0.00 0.00 91 1014.7
20260505022603 51 343 3.0 6.0 0.00 0.00 0.00 91 1014.8
20260505020604 51 358 1.0 3.0 0.00 0.00 0.00 91 1014.9
20260505015603 51 328 3.0 5.0 0.00 0.00 0.00 90 1015.1
20260505014104 52 317 1.0 3.0 0.00 0.00 0.00 90 1015.1
20260505013104 52 342 0.0 1.0 0.00 0.00 0.00 90 1015.1
20260505012104 52 22 0.0 1.0 0.00 0.00 0.00 90 1015.1
20260505004603 52 9 0.0 2.0 0.00 0.00 0.00 90 1015.4
20260505004104 52 359 1.0 2.0 0.00 0.00 0.00 89 1015.5
20260505003603 52 354 1.0 3.0 0.00 0.00 0.00 90 1015.5
20260505002104 52 357 1.0 3.0 0.00 0.00 0.00 89 1015.5
20260505001603 52 353 1.0 3.0 0.00 0.00 0.00 89 1015.5
20260505001103 52 2 1.0 2.0 0.00 0.00 0.00 89 1015.6
20260505000603 52 345 1.0 3.0 0.00 0.00 0.00 89 1015.6
20260505000103 52 349 2.0 3.0 0.00 0.00 0.00 89 1015.6
20260504235603 52 343 1.0 5.0 0.00 0.00 0.00 89 1015.6
20260504234603 53 350 0.0 5.0 0.00 0.00 0.00 89 1015.6
20260504233604 53 348 2.0 7.0 0.00 0.00 0.00 88 1015.6
20260504233103 53 353 2.0 6.0 0.00 0.00 0.00 88 1015.7
20260504232603 53 14 4.0 8.0 0.00 0.00 0.00 87 1015.6
20260504232102 53 358 3.0 6.0 0.00 0.00 0.00 88 1015.6
20260504231104 53 348 1.0 3.0 0.00 0.00 0.00 88 1015.6
20260504230604 53 352 2.0 7.0 0.00 0.00 0.00 88 1015.5
20260504224603 54 344 3.0 5.0 0.00 0.00 0.00 88 1015.7
20260504224104 54 325 1.0 3.0 0.00 0.00 0.00 88 1015.7
20260504222603 54 350 1.0 3.0 0.00 0.00 0.00 88 1015.8
20260504222103 54 347 1.0 2.0 0.00 0.00 0.00 88 1015.9
20260504214604 54 348 1.0 3.0 0.00 0.00 0.00 87 1015.9
20260504214104 54 15 1.0 3.0 0.00 0.00 0.00 87 1016.0
20260504213604 54 350 0.0 3.0 0.00 0.00 0.00 87 1015.9
20260504205603 55 349 2.0 5.0 0.00 0.00 0.00 86 1015.9
20260504204103 55 347 1.0 3.0 0.00 0.00 0.00 86 1015.9
20260504203604 55 346 1.0 3.0 0.00 0.00 0.00 86 1015.9
20260504203104 55 344 1.0 3.0 0.00 0.00 0.00 85 1015.9
20260504202604 55 314 0.0 3.0 0.00 0.00 0.00 85 1015.8
20260504202103 55 331 1.0 3.0 0.00 0.00 0.00 85 1015.8
20260504201603 55 333 0.0 3.0 0.00 0.00 0.00 85 1015.8
20260504201103 55 308 0.0 3.0 0.00 0.00 0.00 85 1015.7
20260504200604 55 308 0.0 2.0 0.00 0.00 0.00 85 1015.7
20260504195605 56 295 0.0 3.0 0.00 0.00 0.00 85 1015.7
20260504194603 56 325 1.0 2.0 0.00 0.00 0.00 85 1015.6
20260504194104 56 22 2.0 5.0 0.00 0.00 0.00 85 1015.6
20260504192603 56 334 1.0 3.0 0.00 0.00 0.00 84 1015.3
20260504191603 56 318 0.0 1.0 0.00 0.00 0.00 85 1015.2
20260504190104 57 80 0.0 1.0 0.00 0.00 0.00 84 1015.1
20260504185103 57 318 0.0 3.0 0.00 0.00 0.00 84 1015.1
20260504184603 57 309 0.0 1.0 0.00 0.00 0.00 84 1015.1
20260504184103 57 301 0.0 3.0 0.00 0.00 0.00 83 1015.1
20260504181604 58 291 1.0 2.0 0.00 0.00 0.00 81 1014.9
20260504181103 58 136 0.0 3.0 0.00 0.00 0.00 81 1014.9
20260504180603 58 281 0.0 2.0 0.00 0.00 0.00 81 1014.9
20260504180103 58 321 0.0 3.0 0.00 0.00 0.00 81 1014.9
20260504174603 58 346 2.0 5.0 0.00 0.00 0.00 80 1014.8
20260504173603 58 309 1.0 2.0 0.00 0.00 0.00 80 1014.7
20260504173104 58 358 2.0 7.0 0.00 0.00 0.00 80 1014.7
20260504172603 58 319 2.0 6.0 0.00 0.00 0.00 80 1014.7
20260504172104 59 330 2.0 10.0 0.00 0.00 0.00 80 1014.7
20260504171103 59 2 2.0 7.0 0.00 0.00 0.00 80 1014.7
20260504150603 59 344 7.0 12.0 0.00 0.00 0.00 81 1014.8
20260504150103 59 351 7.0 13.0 0.00 0.00 0.00 81 1014.7
20260504110104 58 355 1.0 3.0 0.00 0.00 0.00 85 1015.0
20260504100603 57 337 0.0 1.0 0.00 0.00 0.00 87 1015.0